[[{"header":{"parameterUnit":"m.s-1","parameterCategory":1,"la1":30.2991,"la2":30.254,"lo1":-89.0895,"lo2":-89.0444,"dy":0.0017,"dx":0.0017,"nx":28,"ny":28,"refTime":"2025-04-03T21:00:00:Z","depth":0,"parameterNumber":2,"parameterNumberName":"U-component_of_WINDS"},"data":[0,0,0,0,0,0,0,0,0,0,0,0,0,0,0,0,0,0,0,0,0,0,0,0,0,0,0,0,0,0,0,0,0,0,0,0,0,0,0,0,0,0,0,0,0,0,0,0,0,0,0,0,0,0,0,0,0,0,-2.8286,-2.8287,0,-2.8375,-2.8376,-2.8377,-2.8399,-2.8399,-2.8398,-2.8398,-2.849,-2.8493,-2.8496,0,0,0,0,0,0,0,0,0,0,0,0,0,-2.8137,-2.814,-2.8286,-2.8287,-2.8288,-2.8375,-2.8376,-2.8377,-2.8399,-2.8399,-2.8398,-2.8397,-2.8489,-2.8493,-2.8497,0,0,0,0,0,0,0,0,0,0,0,0,0,-2.8212,-2.8141,-2.8285,-2.8309,-2.8312,-2.8374,-2.8376,-2.8377,-2.84,-2.8399,-2.8398,-2.8397,-2.8488,-2.8493,-2.8497,-2.8542,0,0,-2.8511,-2.8513,0,0,0,0,0,0,0,0,-2.8207,-2.8217,-2.8305,-2.8308,-2.8311,-2.8375,-2.8358,-2.8433,-2.84,-2.8367,-2.8398,-2.8397,-2.8453,-2.846,-2.8479,-2.8546,-2.855,-2.8511,-2.8514,-2.8516,-2.8517,0,0,0,0,0,0,0,-2.8202,-2.8213,-2.8321,-2.8306,-2.831,-2.8317,-2.8326,-2.8372,-2.8413,-2.8369,-2.8371,-2.8381,-2.8455,-2.8474,-2.8481,-2.8552,-2.8511,-2.8515,-2.8518,-2.852,-2.8662,-2.8664,0,0,0,0,0,0,-2.8193,-2.8209,-2.8318,-2.8324,-2.8256,-2.832,-2.8331,-2.8355,-2.8413,-2.8421,-2.8382,-2.8382,-2.8467,-2.8476,-2.8485,-2.8542,-2.8516,-2.852,-2.8523,-2.8661,-2.8663,-2.8664,0,0,0,0,0,0,-2.8189,-2.8202,-2.8315,-2.8267,-2.8282,-2.8323,-2.8351,-2.8358,-2.8378,-2.8423,-2.843,-2.8395,-2.8467,-2.8478,-2.8528,-2.8545,-2.8522,-2.8526,-2.866,-2.8662,-2.8663,-2.8655,0,0,0,0,0,0,-2.8185,-2.8201,-2.8217,-2.8267,-2.8284,-2.8355,-2.8352,-2.836,-2.8385,-2.8386,-2.8436,-2.8444,-2.8467,-2.8521,-2.8532,-2.8551,-2.853,-2.8659,-2.8661,-2.8663,-2.8654,-2.8656,-2.8658,0,0,0,0,0,-2.818,-2.8212,-2.8218,-2.8231,-2.8306,-2.8356,-2.8366,-2.8391,-2.8386,-2.8404,-2.8433,-2.8442,-2.8542,-2.8526,-2.8539,-2.8559,-2.8658,-2.866,-2.8663,-2.8653,-2.8656,-2.8658,0,0,0,0,0,0,-2.8163,-2.8218,-2.8226,-2.8275,-2.8311,-2.836,-2.8382,-2.8393,-2.8432,-2.8431,-2.8462,-2.8473,-2.8521,-2.8545,-2.8527,-2.8606,-2.86,-2.8605,-2.8588,-2.8591,-2.8593,-2.8586,-2.8534,0,0,0,0,0,-2.8165,-2.8201,-2.8248,-2.8286,-2.8304,-2.834,-2.8363,-2.838,-2.8418,-2.8433,-2.8466,-2.8504,-2.8544,-2.8569,-2.8608,-2.8658,-2.867,-2.8679,-2.8681,-2.8682,-2.8686,-2.8716,-2.872,-2.8672,-2.8672,-2.8672,0,0,-2.8169,-2.8204,-2.8225,-2.8284,-2.8313,-2.8351,-2.8353,-2.8391,-2.842,-2.844,-2.8488,-2.8514,-2.8558,-2.8608,-2.8632,-2.863,-2.8703,-2.8686,-2.8686,-2.8689,-2.8719,-2.8723,-2.8727,-2.8674,-2.8673,-2.8673,0,0,-2.8196,-2.8226,-2.8262,-2.8292,-2.8337,-2.8361,-2.837,-2.8418,-2.8435,-2.8485,-2.8501,-2.8536,-2.8603,-2.8634,-2.8659,-2.87,-2.871,-2.8712,-2.8722,-2.8751,-2.8755,-2.8758,-2.8773,-2.8778,-2.8716,-2.8716,-2.8716,0,-2.8196,-2.8252,-2.8279,-2.8317,-2.8343,-2.8364,-2.8401,-2.8429,-2.8484,-2.8502,-2.8499,-2.8585,-2.8616,-2.8675,-2.8685,-2.8704,-2.8716,-2.8705,-2.8752,-2.8756,-2.8759,-2.8774,-2.8779,-2.8716,-2.8716,-2.8716,-2.8716,0,-2.825,-2.8288,-2.8312,-2.8365,-2.8394,-2.8431,-2.8465,-2.8492,-2.8507,-2.8532,-2.8583,-2.8621,-2.8669,-2.8684,-2.8699,-2.8745,-2.8743,-2.8746,-2.8739,-2.8763,-2.8778,-2.8783,-2.8716,-2.8716,-2.8716,-2.8716,0,0,-2.8266,-2.8335,-2.8343,-2.8368,-2.842,-2.8451,-2.8491,-2.8537,-2.8559,-2.8598,-2.8632,-2.869,-2.8693,-2.8721,-2.874,-2.8765,-2.8796,-2.8765,-2.8767,-2.8769,-2.885,-2.8847,-2.8853,-2.8804,-2.8805,-2.8806,-2.8846,0,-2.8299,-2.8369,-2.8396,-2.8453,-2.849,-2.8511,-2.8546,-2.8582,-2.8607,-2.8643,-2.8671,-2.8711,-2.8713,-2.873,-2.8756,-2.8786,-2.8812,-2.8784,-2.8836,-2.8838,-2.8823,-2.886,-2.8857,-2.8893,-2.8852,-2.8853,-2.8854,0,-2.8346,-2.8385,-2.8446,-2.8495,-2.8512,-2.8542,-2.8587,-2.8621,-2.8663,-2.868,-2.8712,-2.873,-2.8774,-2.8766,-2.8827,-2.8807,-2.8831,-2.8849,-2.8851,-2.8856,-2.8846,-2.8866,-2.8905,-2.891,-2.8863,-2.8862,-2.8861,0,-2.8352,-2.842,-2.8466,-2.8486,-2.8544,-2.8565,-2.8591,-2.8632,-2.8659,-2.8699,-2.8717,-2.8762,-2.8787,-2.8822,-2.8852,-2.8844,-2.8911,-2.8905,-2.8926,-2.8926,-2.8938,-2.8937,-2.8981,-2.8954,-2.8954,-2.8954,-2.8954,0,-2.8386,-2.8422,-2.8469,-2.8497,-2.8539,-2.8571,-2.8612,-2.8639,-2.8676,-2.871,-2.8732,-2.8764,-2.8802,-2.884,-2.8864,-2.8911,-2.8922,-2.8938,-2.8943,-2.8935,-2.8933,-2.895,-2.8948,-2.8956,-2.8955,-2.8955,-2.8955,0,-2.8399,-2.8432,-2.8483,-2.8534,-2.8548,-2.8577,-2.8621,-2.865,-2.8677,-2.872,-2.8732,-2.8775,-2.882,-2.8854,-2.8913,-2.8929,-2.898,-2.8986,-2.8965,-2.8968,-2.8987,-2.8984,-2.9043,-2.9052,-2.9019,-2.902,-2.902,0,-2.8418,-2.8446,-2.8501,-2.8525,-2.855,-2.859,-2.8617,-2.865,-2.8678,-2.8729,-2.8752,-2.8799,-2.8838,-2.891,-2.8947,-2.8992,-2.9,-2.9017,-2.9007,-2.8998,-2.9,-2.8998,-2.9001,-2.9018,-2.9018,-2.9019,-2.9019,0,-2.8448,-2.8463,-2.8501,-2.8546,-2.8578,-2.8615,-2.8653,-2.8672,-2.8711,-2.8742,-2.8789,-2.8819,-2.888,-2.8926,-2.8976,-2.9003,-2.9018,-2.9022,-2.9029,-2.9021,-2.9007,-2.9015,-2.8968,-2.902,-2.902,-2.902,-2.902,-2.902,-2.8464,-2.8491,-2.8534,-2.8576,-2.8608,-2.8643,-2.8673,-2.8704,-2.8743,-2.8794,-2.8812,-2.886,-2.8904,-2.8972,-2.9,-2.9039,-2.9039,-2.9049,-2.9052,-2.9054,-2.9053,-2.9002,-2.9048,-2.9048,-2.9048,-2.9048,-2.9048,0,-2.8495,-2.8524,-2.8563,-2.8615,-2.8649,-2.866,-2.8702,-2.873,-2.8772,-2.8811,-2.885,-2.8904,-2.895,-2.8991,-2.9039,-2.9062,-2.907,-2.9074,-2.9072,-2.9078,-2.905,-2.9039,-2.9066,-2.9066,-2.9066,-2.9066,-2.9066,-2.9066,-2.8515,-2.8561,-2.8582,-2.8645,-2.8674,-2.8721,-2.8744,-2.8777,-2.8808,-2.8868,-2.8906,-2.8932,-2.8973,-2.9024,-2.9067,-2.9078,-2.9095,-2.9097,-2.9109,-2.9082,-2.908,-2.9078,-2.9067,-2.91,-2.91,-2.9134,-2.9134,-2.9135]},{"header":{"parameterUnit":"m.s-1","parameterCategory":1,"la1":30.2991,"la2":30.254,"lo1":-89.0895,"lo2":-89.0444,"dy":0.0017,"dx":0.0017,"nx":28,"ny":28,"refTime":"2025-04-03T21:00:00:Z","depth":0,"parameterNumber":3,"parameterNumberName":"V-component_of_WINDS"},"data":[0,0,0,0,0,0,0,0,0,0,0,0,0,0,0,0,0,0,0,0,0,0,0,0,0,0,0,0,0,0,0,0,0,0,0,0,0,0,0,0,0,0,0,0,0,0,0,0,0,0,0,0,0,0,0,0,0,0,5.1412,5.1412,0,5.1413,5.1413,5.1413,5.1399,5.1399,5.1399,5.1398,5.1397,5.1398,5.1398,0,0,0,0,0,0,0,0,0,0,0,0,0,5.1401,5.1401,5.1412,5.1412,5.1412,5.1413,5.1413,5.1413,5.1399,5.1399,5.1399,5.1398,5.1397,5.1398,5.1398,0,0,0,0,0,0,0,0,0,0,0,0,0,5.1404,5.1401,5.1412,5.1406,5.1405,5.1413,5.1413,5.1413,5.14,5.1399,5.1398,5.1398,5.1397,5.1398,5.1398,5.1411,0,0,5.1399,5.14,0,0,0,0,0,0,0,0,5.1404,5.1404,5.1407,5.1406,5.1406,5.1405,5.1408,5.1412,5.14,5.1402,5.1398,5.1398,5.14,5.1401,5.1402,5.1411,5.1411,5.1399,5.14,5.14,5.14,0,0,0,0,0,0,0,5.1404,5.1404,5.1412,5.1407,5.1406,5.1403,5.1403,5.1409,5.1404,5.1401,5.14,5.1401,5.14,5.1401,5.1402,5.1411,5.1399,5.14,5.14,5.14,5.1435,5.1436,0,0,0,0,0,0,5.1404,5.1404,5.1412,5.1412,5.1403,5.1404,5.1404,5.1406,5.1404,5.1403,5.1401,5.14,5.1401,5.1401,5.1401,5.1419,5.14,5.14,5.1401,5.1434,5.1435,5.1436,0,0,0,0,0,0,5.1404,5.1405,5.1412,5.1408,5.1409,5.1404,5.1407,5.1406,5.1408,5.1404,5.1403,5.1403,5.14,5.1401,5.141,5.1419,5.1401,5.1401,5.1434,5.1435,5.1436,5.1453,0,0,0,0,0,0,5.1404,5.1405,5.141,5.1408,5.1409,5.142,5.1408,5.1407,5.1409,5.1407,5.1405,5.1405,5.14,5.1409,5.141,5.1419,5.1401,5.1433,5.1434,5.1435,5.1452,5.1455,5.1457,0,0,0,0,0,5.1403,5.1413,5.141,5.1411,5.1415,5.1421,5.1421,5.1416,5.1409,5.1414,5.1412,5.1405,5.1418,5.141,5.1411,5.142,5.1432,5.1434,5.1435,5.1451,5.1454,5.1457,0,0,0,0,0,0,5.1414,5.1413,5.1409,5.1419,5.142,5.1418,5.1424,5.1419,5.1422,5.142,5.1414,5.1413,5.1424,5.1423,5.1415,5.1435,5.1424,5.1426,5.1435,5.1438,5.1441,5.1441,5.1402,0,0,0,0,0,5.1418,5.1423,5.1422,5.1431,5.1432,5.1428,5.143,5.1427,5.1428,5.1428,5.1426,5.1427,5.1432,5.1435,5.1439,5.1452,5.1452,5.1459,5.1461,5.1463,5.1465,5.1475,5.1478,5.1441,5.1441,5.1441,0,0,5.1425,5.1426,5.1429,5.1433,5.1434,5.144,5.1428,5.1435,5.144,5.1429,5.1438,5.1437,5.1438,5.145,5.1455,5.1449,5.1476,5.1465,5.1467,5.1468,5.1477,5.148,5.1484,5.1442,5.1442,5.1441,0,0,5.1443,5.1442,5.1451,5.1453,5.1455,5.1453,5.1455,5.1455,5.1455,5.1464,5.1457,5.1462,5.147,5.1472,5.1473,5.1495,5.1489,5.1497,5.1511,5.152,5.1523,5.1526,5.1536,5.1539,5.1498,5.1498,5.1498,0,5.1451,5.146,5.1456,5.1464,5.1467,5.1459,5.1469,5.147,5.1473,5.1476,5.1469,5.1481,5.1481,5.1494,5.15,5.1501,5.1505,5.1497,5.1523,5.1526,5.1528,5.1538,5.1541,5.1499,5.1499,5.1499,5.1499,0,5.1472,5.1479,5.1486,5.1491,5.1495,5.1503,5.1501,5.1505,5.1502,5.1502,5.1513,5.1513,5.1518,5.1521,5.1516,5.1535,5.1531,5.1524,5.1513,5.1533,5.1542,5.1545,5.1501,5.15,5.15,5.15,0,0,5.1494,5.1499,5.1502,5.1505,5.1508,5.1514,5.1523,5.1529,5.1534,5.1537,5.1546,5.1554,5.1549,5.1551,5.1547,5.1556,5.1576,5.1548,5.1548,5.1555,5.1599,5.1606,5.161,5.1572,5.1573,5.1574,5.16,0,5.1512,5.1529,5.1527,5.1543,5.1551,5.1545,5.1554,5.1557,5.1557,5.1564,5.1564,5.1571,5.1562,5.1564,5.1572,5.1572,5.1585,5.157,5.1582,5.1582,5.1583,5.1614,5.162,5.1644,5.1603,5.1604,5.1604,0,5.1534,5.154,5.1558,5.1564,5.1567,5.1574,5.1582,5.1588,5.1593,5.1593,5.1597,5.1593,5.1604,5.1593,5.1609,5.1599,5.1604,5.1605,5.1606,5.1607,5.1595,5.1618,5.1652,5.1656,5.1609,5.1608,5.1608,0,5.1551,5.1563,5.1576,5.1579,5.1585,5.1591,5.1594,5.1598,5.1603,5.161,5.1614,5.1621,5.1625,5.1631,5.163,5.1622,5.1647,5.1635,5.1649,5.1649,5.1654,5.1654,5.1691,5.1655,5.1655,5.1655,5.1655,0,5.1571,5.1582,5.1584,5.1592,5.1606,5.1604,5.1618,5.162,5.1624,5.1634,5.1629,5.1637,5.1635,5.1644,5.1643,5.1658,5.1659,5.166,5.166,5.1661,5.1661,5.1665,5.1664,5.1656,5.1656,5.1656,5.1656,0,5.1591,5.1592,5.1607,5.1613,5.1615,5.1625,5.163,5.1638,5.1639,5.1651,5.1654,5.1656,5.1667,5.1666,5.1677,5.1677,5.1696,5.1693,5.1695,5.1695,5.1709,5.1709,5.175,5.1757,5.1716,5.1716,5.1716,0,5.1604,5.1613,5.1622,5.1628,5.1632,5.1642,5.1648,5.1648,5.1655,5.1663,5.1671,5.1682,5.169,5.1708,5.171,5.172,5.1718,5.1733,5.172,5.1722,5.1721,5.1721,5.1723,5.1735,5.1736,5.1736,5.1736,0,5.1628,5.163,5.1639,5.165,5.1658,5.1666,5.1674,5.1679,5.168,5.1688,5.17,5.1707,5.1721,5.1732,5.1742,5.1746,5.1742,5.1741,5.1745,5.1746,5.1748,5.175,5.1704,5.1739,5.1739,5.1739,5.1739,5.1739,5.1646,5.1656,5.1664,5.1676,5.1682,5.169,5.17,5.1704,5.1714,5.1726,5.1725,5.1739,5.1747,5.176,5.1765,5.1777,5.1771,5.1776,5.1778,5.178,5.1783,5.1746,5.1778,5.1778,5.1778,5.1778,5.1778,0,5.1672,5.1678,5.1689,5.1701,5.1711,5.1708,5.1718,5.1726,5.1739,5.1747,5.1757,5.1772,5.1784,5.1789,5.1801,5.181,5.1809,5.1813,5.1813,5.1814,5.1785,5.1781,5.1814,5.1814,5.1814,5.1814,5.1814,5.1814,5.1686,5.1703,5.1706,5.1727,5.1733,5.1748,5.1754,5.1762,5.1769,5.1787,5.1798,5.1801,5.1809,5.1822,5.1834,5.1835,5.1841,5.1846,5.1847,5.1819,5.1816,5.1812,5.1809,5.1847,5.1847,5.1876,5.1876,5.1876]}]]